Location: Daybis Observatory
(33.4273°N, 88.8061°W)
Time: 02:07:36
(UTC-05:00)

Daily predictions for brighter satellites

Satellite Brightness Start Highest point End
(mag) Time Altitude Azimuth Time Altitude Azimuth Time Altitude Azimuth
Cosmos 2285 Rocket 4.1 00:01:50 10° NNW 00:07:34 74° NNW 00:07:34 74° NNW
Terra 4.1 00:10:53 16° W 00:10:53 16° W 00:12:54 10° NW
Cosmos 2034 Rocket 4.1 00:11:28 10° N 00:17:05 71° NNE 00:17:05 71° NNE
ALOS 2 4.5 00:23:03 28° N 00:23:03 28° N 00:25:13 10° N
CZ-4C R/B 3.1 00:22:54 41° NNE 00:22:54 41° NNE 00:26:36 10° NNE
Cosmos 2263 Rocket 4.0 00:20:31 22° W 00:21:53 24° WNW 00:26:19 10° N
Cosmos 1844 Rocket 3.5 00:57:52 47° NNW 00:57:52 47° NNW 01:02:04 10° NNE
Cosmos 1634 Rocket 4.4 00:50:55 10° N 00:56:07 58° NE 00:56:07 58° NE
Cosmos 2278 Rocket 2.8 01:45:15 52° NNW 01:45:15 52° NNW 01:49:47 10° NNE
H-2A R/B 4.3 01:41:13 10° N 01:43:43 32° N 01:43:43 32° N
Nadezhda 4 Rocket 4.2 01:50:39 65° ENE 01:50:39 65° ENE 01:56:33 10° NNE
Cosmos 1833 Rocket 4.3 01:52:17 10° N 01:57:11 29° ENE 01:58:54 25° E
Cosmos 2297 4.0 02:04:57 64° NE 02:04:57 64° NE 02:09:46 10° NNE
Cosmos 2279 Rocket 4.5 02:03:42 10° NNW 02:08:54 49° WNW 02:08:54 49° WNW
Meteor 1-10 Rocket 4.5 02:08:34 10° NNW 02:13:33 65° NW 02:13:33 65° NW
USA 267 4.4 02:10:43 10° ENE 02:15:50 27° ESE 02:15:50 27° ESE
Cosmos 1733 Rocket 4.3 02:19:01 39° NNE 02:19:01 39° NNE 02:21:49 10° N
Cosmos 2150 Rocket 4.5 02:19:04 59° ENE 02:19:04 59° ENE 02:23:50 10° NNE
BREEZE-M DEB (TANK) 3.7 02:18:10 75° S 02:18:42 80° SE 02:37:17 10° NE
Cosmos 2082 Rocket 2.8 02:16:43 10° N 02:22:11 52° ENE 02:22:59 48° E
ADEOS Rocket 3.9 02:16:12 10° NNE 02:23:25 48° E 02:25:04 41° SE
ATLAS 3B R/B 2.7 02:28:26 70° SSW 02:29:23 84° ESE 02:36:43 10° NNE
Cosmos 44 4.1 02:32:00 44° NNW 02:32:00 44° NNW 02:35:23 10° NNE
Sich 1 Rocket 4.5 02:38:43 47° ENE 02:38:43 47° ENE 02:42:37 10° NNE
Cosmos 2195 Rocket 4.4 02:38:14 70° SE 02:38:52 77° E 02:45:08 10° N
Cosmos 44 Rocket 4.4 02:41:11 36° NW 02:41:11 36° NW 02:45:06 10° N
Cosmos 1627 Rocket 4.3 02:42:20 72° SSE 02:42:57 81° E 02:49:05 10° N
Meteor 1-27 Rocket 3.7 02:37:28 10° NNW 02:43:19 73° W 02:43:19 73° W
AQUA 3.9 02:43:10 10° NNE 02:47:29 71° NE 02:47:29 71° NE
Okean 3 4.4 02:43:56 10° N 02:47:40 43° ENE 02:47:40 43° ENE
Cosmos 1937 Rocket 3.7 02:49:53 60° NW 02:49:53 60° NW 02:54:37 10° N
Cosmos 1674 Rocket 4.2 02:47:25 10° N 02:50:50 53° N 02:50:50 53° N
Meteor 2-20 Rocket 4.3 02:51:48 70° WSW 02:52:20 74° W 02:58:30 10° N
Timation 2 Rocket 4.4 02:46:24 10° NNW 02:52:25 58° ENE 02:56:12 24° SE
Cosmos 1908 Rocket 3.8 02:58:20 65° N 02:58:20 65° N 03:02:09 10° N
Resurs 1-4 Rocket 2.5 02:54:00 10° NNE 02:59:14 55° E 03:00:04 50° SE
BREEZE-M DEB (TANK) 4.1 02:56:48 44° SSW 02:59:35 61° SE 03:03:52 10° ENE
COBE Rocket 3.8 02:56:36 10° NNE 03:01:27 86° ESE 03:01:30 85° SE
Cosmos 1092 Rocket 4.4 03:01:33 43° W 03:01:58 44° W 03:07:56 10° N
Geosat 3.8 02:56:57 10° NNE 03:01:59 80° WNW 03:02:09 79° W
BREEZE-M DEB (TANK) 3.9 03:04:04 25° NE 03:04:04 25° NE 03:05:57 10° NE
OAO 1 4.3 03:04:33 78° S 03:04:39 78° SSE 03:10:09 10° ENE
SeaSat 1 2.5 03:05:50 62° WNW 03:05:50 62° WNW 03:10:11 10° NNW
Cosmos 990 Rocket 4.3 03:05:25 51° WNW 03:05:25 51° WNW 03:10:23 10° N
Okean 2 Rocket 4.0 03:05:26 38° ESE 03:06:00 40° E 03:10:07 10° NNE
Cosmos 1125 Rocket 4.0 03:11:41 43° SE 03:12:52 52° ESE 03:18:00 10° NNE
IRS-1C 4.1 03:08:00 10° N 03:13:18 66° WNW 03:13:52 62° WSW
Cosmos 1378 Rocket 3.5 03:09:11 10° N 03:13:18 80° N 03:13:18 80° N
Cosmos 2026 Rocket 3.9 03:13:40 54° WSW 03:14:34 60° W 03:20:34 10° N
CZ-2D R/B 2.1 03:09:20 10° NNE 03:14:44 78° ESE 03:15:55 56° S
Delta 2 Rocket 3.6 03:15:57 75° S 03:15:57 75° S 03:20:28 10° ESE
SL-08 R/B 3.6 03:18:18 54° W 03:18:18 54° W 03:22:41 10° NNW
ARIANE 5 R/B 2.4 03:15:01 10° NNE 03:20:00 79° ESE 03:20:57 59° S
Cosmos 1553 Rocket 4.2 03:13:48 10° N 03:20:12 70° E 03:23:53 27° SSE
Cosmos 1782 Rocket 3.4 03:20:21 84° SW 03:20:29 87° W 03:24:59 10° N
USA 238 DEB 3.9 03:18:44 42° WSW 03:20:54 59° WNW 03:27:49 10° NNE
USA 238 3.9 03:18:50 42° WSW 03:21:00 60° WNW 03:27:55 10° NNE
Spot 4 Rocket 3.9 03:17:18 10° N 03:22:28 80° WNW 03:23:21 61° SSW
UNKNOWN OBJECT B 3.5 03:26:07 10° NNE 03:29:40 42° E 03:30:08 40° ESE
IRS-1D 3.4 03:25:02 10° N 03:30:06 73° WNW 03:31:04 56° SW
CZ-3A R/B 3.6 03:31:03 34° SSW 03:32:23 36° S 03:54:54 10° ESE
Meteor 1-18 Rocket 4.4 03:27:36 10° N 03:33:08 70° E 03:36:39 23° SSE
Meteor 1-20 Rocket 4.2 03:32:30 42° S 03:34:35 89° W 03:40:27 10° N
Cosmos 1943 Rocket 3.2 03:33:05 22° SSE 03:36:02 39° ESE 03:41:13 10° NE
Cosmos 724 4.3 03:34:55 43° SSW 03:37:06 85° WNW 03:43:19 10° NNE
Meteor 2-11 Rocket 4.4 03:31:46 10° N 03:37:56 84° W 03:41:13 30° S
Cosmos 2369 Rocket 2.1 03:36:24 42° S 03:38:21 81° ESE 03:44:00 10° NNE
PSLV R/B 3.7 03:41:02 55° E 03:41:02 55° E 03:43:45 10° ENE
Cosmos 1833 Rocket 3.5 03:36:06 10° NW 03:40:31 31° W 03:40:31 31° W
Okean O Rocket 4.3 03:39:17 10° ENE 03:41:12 13° E 03:43:06 10° ESE
Cosmos 1655 Rocket 4.4 03:40:47 37° WSW 03:42:32 46° W 03:48:32 10° N
Cosmos 1346 4.1 03:40:01 10° N 03:41:59 40° NNE 03:41:59 40° NNE
UNK 3.8 03:42:47 51° SW 03:43:31 58° W 03:48:08 10° NNW
Cosmos 1437 3.2 03:43:12 10° NNW 03:45:48 51° NW 03:45:48 51° NW
COSMOS 2455 3.3 03:44:20 27° S 03:47:29 54° ESE 03:53:19 10° NE
Cosmos 405 Rocket 3.5 03:44:03 10° N 03:47:54 50° E 03:50:19 20° SSE
SL-16 R/B 2.6 03:46:39 32° SSW 03:49:23 56° W 03:55:31 10° NNW
CZ-3B DEB 3.9 03:37:04 10° NW 03:50:22 89° SW 04:00:31 10° SE
Cosmos 372 Rocket 3.9 03:49:54 40° SSW 03:51:50 80° WNW 03:57:03 10° NNE
Cosmos 1812 2.9 03:49:44 10° NNW 03:53:29 50° W 03:53:36 50° W
Cosmos 2151 Rocket 3.8 03:51:49 30° S 03:53:57 70° E 03:58:28 10° NNE
ADEOS II 3.8 03:50:23 10° NE 03:54:51 28° E 03:59:18 10° SSE
Cosmos 1975 Rocket 3.1 03:50:40 10° NNW 03:54:54 55° W 03:55:49 45° SW
Cosmos 2263 4.3 03:52:13 31° S 03:55:08 79° ESE 04:00:56 10° NNE
USA 267 3.4 03:52:51 10° NE 03:59:19 67° NW 04:03:11 26° WSW
USA 161 3.6 03:59:05 14° ESE 04:00:20 21° ENE 04:02:19 10° NNE
NOSS 3-2 (C) 3.4 03:57:46 32° SW 04:00:42 81° WNW 04:07:08 10° NNE
Cosmos 1536 4.4 03:58:11 11° SSE 04:01:28 31° E 04:05:00 10° NNE
NOSS 3-2 (A) 3.6 03:58:42 31° WSW 04:01:31 59° WNW 04:07:52 10° NNE
Cosmos 2082 Rocket 3.8 04:02:17 10° WNW 04:04:46 16° W 04:04:46 16° W
Cosmos 468 4.4 04:02:39 10° NNW 04:07:56 69° WSW 04:12:55 11° S
ADEOS Rocket 4.5 04:02:09 10° N 04:08:25 30° WNW 04:12:01 20° WSW
Cosmos 158 Rocket 3.9 04:04:28 10° NNW 04:09:34 81° ENE 04:14:31 10° SSE
Cosmos 1602 3.6 04:08:20 33° SSW 04:10:00 82° W 04:13:58 10° N
SL-24 R/B 4.2 04:06:09 10° N 04:10:27 79° WNW 04:13:19 25° SSW
Cosmos 2344 3.8 04:05:51 25° SW 04:10:31 62° NW 04:18:41 10° NNE
ASTRO E2 2.8 04:12:02 37° SW 04:13:15 54° S 04:17:09 10° E
MOS 1-B 4.5 04:11:42 10° NNE 04:17:30 77° ESE 04:22:39 13° S
Cosmos 1536 Rocket 3.8 04:13:07 10° N 04:17:36 73° E 04:22:03 10° SSE
Cosmos 2266 Rocket 4.2 04:13:52 23° SSW 04:17:55 57° W 04:24:13 10° N
CENTAUR R/B 3.4 04:14:12 13° S 04:19:07 42° ESE 04:25:09 10° NE
Cosmos 2315 Rocket 4.2 04:13:06 10° N 04:19:24 73° E 04:25:36 10° SSE
GPS 2-05 Rocket1 4.3 04:20:43 21° S 04:20:43 21° S 04:22:31 10° SSE
MOZ.5/SAFIR/RUBIN 5/SL-8 3.9 04:17:23 18° S 04:20:50 56° W 04:25:31 10° NNW
ATLAS 3B R/B 4.5 04:15:40 10° W 04:20:53 20° NW 04:26:02 10° N
BREEZE-M DEB (TANK) 3.1 04:18:14 10° NW 04:22:21 56° NNE 04:24:59 10° ESE
PSLV R/B 4.4 04:21:20 10° NNE 04:24:58 51° E 04:28:20 11° S
Gbstr 26 Del rocket 3.2 04:27:41 23° WSW 04:29:40 48° NW 04:33:20 10° NE
Cosmos 1048 Rocket 4.1 04:24:31 10° NNW 04:29:50 62° WSW 04:35:06 10° S
Cosmos 1633 3.8 04:29:00 22° WSW 04:29:55 25° W 04:32:59 10° NNW
CCE 1 Rocket 4.1 04:30:32 23° SW 04:32:06 32° SSW 04:35:39 10° SE
PSLV R/B 4.4 04:29:53 10° NNE 04:33:59 47° E 04:38:07 10° S
Okean 1 4.3 04:32:01 10° NNW 04:35:31 28° W 04:37:20 20° SW
Resurs 1-4 Rocket 3.9 04:35:28 10° NNW 04:38:32 16° WNW 04:41:09 11° W
Milstar 3 4.4 04:33:10 16° SW 04:41:12 60° SSE 04:59:38 10° E
Okean 1 Rocket 3.1 04:38:14 10° S 04:42:43 89° W 04:47:12 10° N
CZ-4B R/B 3.9 04:37:29 10° NNE 04:42:58 57° E 04:48:30 10° S
Meteor 2-4 Rocket 3.8 04:40:26 10° N 04:46:04 84° E 04:51:31 10° S
Landsat 4 4.2 04:43:07 10° SSE 04:46:53 63° ENE 04:50:39 10° N
CZ-4B R/B 2.5 04:46:36 10° N 04:50:16 85° WNW 04:53:52 10° SSW
Cosmos 2251 Rocket 4.5 04:45:53 10° N 04:51:02 51° ENE 04:56:06 10° SSE
Meteor 1-11 Rocket 4.1 04:46:55 12° SSW 04:51:59 48° WNW 04:57:35 10° N
Meteor 1-13 Rocket 4.3 04:46:45 10° NNW 04:52:07 55° W 04:57:33 10° S
CZ-2D R/B 4.2 04:52:24 10° NW 04:54:05 11° WNW 04:55:47 10° W
Cosmos 1441 Rocket 4.0 04:51:31 10° NNW 04:55:10 34° W 04:58:47 10° SSW
Meteor 1-5 Rocket 4.4 04:52:53 10° S 04:58:49 79° W 05:04:50 10° N
Cosmos 1300 Rocket 4.4 04:59:03 11° SW 05:02:54 33° W 05:06:56 10° NNW
Molniya-1 2.0 05:06:36 12° SSW 05:08:13 88° E 05:09:46 10° NNE
H-2A R/B 2.8 04:52:56 10° W 05:12:19 78° S 05:16:09 10° E
Okean O Rocket 2.1 05:13:33 10° N 05:17:44 44° WNW 05:21:55 10° SW
Centaur D AC-25 3.3 05:08:37 10° W 05:18:34 49° SSW 05:22:31 10° ESE
Cosmos 1943 Rocket 3.5 05:15:18 10° WSW 05:19:50 25° WNW 05:24:24 10° N
OAO 2 Rocket 4.3 05:15:22 10° SW 05:20:07 37° SSE 05:24:58 10° E
Cosmos 1745 Rocket 4.1 05:15:20 10° S 05:21:40 75° W 05:28:01 10° N
